Time,TemperatureF,DewpointF,PressureIn,WindDirection,WindDirectionDegrees,WindSpeedMPH,WindSpeedGustMPH,Humidity,HourlyPrecipIn,Conditions,Clouds,dailyrainin,SoftwareType,DateUTC
2013-04-25 00:01:00,58.3,53.5,29.82,SW,233,3.0,7.0,84,0.00,,OVC100,0.00,VWS V14.01,2013-04-25 04:01:00,
2013-04-25 00:06:00,58.3,53.5,29.82,WSW,243,1.0,8.0,84,0.00,,OVC100,0.00,VWS V14.01,2013-04-25 04:06:00,
2013-04-25 00:11:00,58.3,53.5,29.82,SW,231,2.0,8.0,84,0.00,,OVC100,0.00,VWS V14.01,2013-04-25 04:11:00,
2013-04-25 00:16:00,58.3,53.8,29.82,WSW,254,1.0,1.0,85,0.00,,OVC060,0.00,VWS V14.01,2013-04-25 04:16:00,
2013-04-25 00:21:00,58.4,53.9,29.84,NNW,333,3.0,8.0,85,0.00,,OVC060,0.00,VWS V14.01,2013-04-25 04:21:00,
2013-04-25 00:26:00,57.7,52.9,29.86,West,276,2.0,10.0,84,0.00,,OVC060,0.00,VWS V14.01,2013-04-25 04:26:00,
2013-04-25 00:31:00,56.0,51.2,29.86,NNE,20,5.0,5.0,84,0.00,,OVC060,0.00,VWS V14.01,2013-04-25 04:31:00,
2013-04-25 00:36:00,54.4,50.3,29.86,NE,49,1.0,18.0,86,0.00,,OVC060,0.00,VWS V14.01,2013-04-25 04:36:00,
2013-04-25 00:41:00,53.6,49.8,29.87,East,96,2.0,18.0,87,0.00,,OVC060,0.00,VWS V14.01,2013-04-25 04:41:00,
2013-04-25 00:46:00,53.3,49.5,29.87,WNW,291,6.0,6.0,87,0.00,,OVC060,0.00,VWS V14.01,2013-04-25 04:46:00,
2013-04-25 00:51:00,53.1,49.3,29.87,SW,229,4.0,8.0,87,0.00,,OVC060,0.00,VWS V14.01,2013-04-25 04:51:00,
2013-04-25 00:56:00,53.0,48.6,29.87,West,267,1.0,18.0,85,0.00,,OVC060,0.00,VWS V14.01,2013-04-25 04:56:00,
2013-04-25 01:01:00,52.9,48.5,29.87,NNE,13,5.0,7.0,85,0.00,,-RA,0.00,VWS V14.01,2013-04-25 05:01:00,
2013-04-25 01:06:00,52.8,48.4,29.88,WSW,252,4.0,10.0,85,0.00,,-RA,0.00,VWS V14.01,2013-04-25 05:06:00,
2013-04-25 01:11:00,52.6,48.2,29.88,WSW,243,4.0,10.0,85,0.00,,-RA,0.00,VWS V14.01,2013-04-25 05:11:00,
2013-04-25 01:16:00,52.5,47.2,29.88,SW,232,1.0,2.0,82,0.00,,-RA,0.00,VWS V14.01,2013-04-25 05:16:00,
2013-04-25 01:21:00,52.2,46.5,29.87,WSW,246,3.0,13.0,81,0.00,,-RA,0.00,VWS V14.01,2013-04-25 05:21:00,
2013-04-25 01:26:00,51.9,46.6,29.87,SW,219,1.0,17.0,82,0.00,,-RA,0.00,VWS V14.01,2013-04-25 05:26:00,
2013-04-25 01:31:00,51.4,46.1,29.87,WSW,250,4.0,5.0,82,0.00,,-RA,0.00,VWS V14.01,2013-04-25 05:31:00,
2013-04-25 01:36:00,51.1,45.8,29.87,North,352,2.0,11.0,82,0.00,,-RA,0.00,VWS V14.01,2013-04-25 05:36:00,
2013-04-25 01:41:00,50.7,45.7,29.87,SW,226,2.0,11.0,83,0.00,,-RA,0.00,VWS V14.01,2013-04-25 05:41:00,
2013-04-25 01:46:00,50.3,45.0,29.88,NNW,342,1.0,2.0,82,0.00,,-RA,0.00,VWS V14.01,2013-04-25 05:46:00,
2013-04-25 01:51:00,50.1,45.2,29.88,NE,47,4.0,14.0,83,0.00,,-RA,0.00,VWS V14.01,2013-04-25 05:51:00,
2013-04-25 01:56:00,49.8,44.8,29.88,NNE,19,5.0,14.0,83,0.00,,-RA,0.00,VWS V14.01,2013-04-25 05:56:00,
2013-04-25 02:01:00,49.6,45.0,29.88,NE,43,3.0,3.0,84,0.00,,BKN100,0.00,VWS V14.01,2013-04-25 06:01:00,
2013-04-25 02:06:00,49.3,44.7,29.89,NNE,15,6.0,11.0,84,0.00,,BKN100,0.00,VWS V14.01,2013-04-25 06:06:00,
2013-04-25 02:11:00,49.3,44.4,29.89,WNW,288,2.0,14.0,83,0.00,,BKN100,0.00,VWS V14.01,2013-04-25 06:11:00,
2013-04-25 02:15:00,49.1,44.5,29.90,SSE,161,1.0,14.0,84,0.00,,BKN100,0.00,VWS V14.01,2013-04-25 06:15:00,
2013-04-25 02:20:00,48.9,44.3,29.89,WNW,297,0.0,8.0,84,0.00,,BKN100,0.00,VWS V14.01,2013-04-25 06:20:00,
2013-04-25 02:25:00,48.7,43.8,29.89,NNE,32,3.0,10.0,83,0.00,,BKN100,0.00,VWS V14.01,2013-04-25 06:25:00,
2013-04-25 02:30:00,48.4,43.5,29.89,ENE,64,3.0,10.0,83,0.00,,BKN100,0.00,VWS V14.01,2013-04-25 06:30:00,
2013-04-25 02:36:00,48.3,43.1,29.90,West,266,2.0,9.0,82,0.00,,BKN100,0.00,VWS V14.01,2013-04-25 06:36:00,
2013-04-25 02:41:00,48.1,43.2,29.91,NNE,13,4.0,9.0,83,0.00,,BKN100,0.00,VWS V14.01,2013-04-25 06:41:00,
2013-04-25 02:46:00,47.9,42.7,29.91,West,274,4.0,14.0,82,0.00,,BKN100,0.00,VWS V14.01,2013-04-25 06:46:00,
2013-04-25 02:51:00,47.8,42.6,29.92,WNW,293,1.0,10.0,82,0.00,,BKN100,0.00,VWS V14.01,2013-04-25 06:51:00,
2013-04-25 02:55:00,47.7,42.5,29.92,ENE,60,2.0,10.0,82,0.00,,BKN100,0.00,VWS V14.01,2013-04-25 06:55:00,
2013-04-25 03:00:00,47.5,41.3,29.92,NNE,13,3.0,10.0,79,0.00,,BKN100,0.00,VWS V14.01,2013-04-25 07:00:00,
2013-04-25 03:05:00,47.4,40.9,29.92,North,349,1.0,14.0,78,0.00,,BKN100,0.00,VWS V14.01,2013-04-25 07:05:00,
2013-04-25 03:10:00,47.2,40.4,29.93,SSW,194,4.0,14.0,77,0.00,,BKN100,0.00,VWS V14.01,2013-04-25 07:10:00,
2013-04-25 03:15:00,47.0,39.8,29.93,North,9,4.0,18.0,76,0.00,,BKN100,0.00,VWS V14.01,2013-04-25 07:15:00,
2013-04-25 03:20:00,46.8,40.0,29.93,NNW,338,2.0,7.0,77,0.00,,BKN100,0.00,VWS V14.01,2013-04-25 07:20:00,
2013-04-25 03:25:00,46.6,39.5,29.93,NE,44,2.0,9.0,76,0.00,,BKN100,0.00,VWS V14.01,2013-04-25 07:25:00,
2013-04-25 03:30:00,46.1,38.3,29.94,SE,134,2.0,17.0,74,0.00,,BKN100,0.00,VWS V14.01,2013-04-25 07:30:00,
2013-04-25 03:35:00,45.9,38.4,29.94,West,280,1.0,8.0,75,0.00,,BKN100,0.00,VWS V14.01,2013-04-25 07:35:00,
2013-04-25 03:40:00,45.6,38.2,29.94,NNE,23,3.0,8.0,75,0.00,,BKN100,0.00,VWS V14.01,2013-04-25 07:40:00,
2013-04-25 03:45:00,45.4,37.6,29.95,NNE,27,8.0,11.0,74,0.00,,BKN100,0.00,VWS V14.01,2013-04-25 07:45:00,
2013-04-25 03:50:00,45.2,37.8,29.95,North,4,6.0,10.0,75,0.00,,BKN100,0.00,VWS V14.01,2013-04-25 07:50:00,
2013-04-25 03:55:00,45.0,37.2,29.95,West,278,9.0,11.0,74,0.00,,BKN100,0.00,VWS V14.01,2013-04-25 07:55:00,
2013-04-25 04:00:00,44.8,36.7,29.95,NNE,15,2.0,12.0,73,0.00,,BKN100,0.00,VWS V14.01,2013-04-25 08:00:00,
2013-04-25 04:05:00,44.6,36.2,29.96,NW,305,7.0,13.0,72,0.00,,BKN100,0.00,VWS V14.01,2013-04-25 08:05:00,
2013-04-25 04:10:00,44.4,36.0,29.96,WNW,286,4.0,15.0,72,0.00,,BKN100,0.00,VWS V14.01,2013-04-25 08:10:00,
2013-04-25 04:15:00,44.2,35.8,29.96,North,3,3.0,16.0,72,0.00,,BKN100,0.00,VWS V14.01,2013-04-25 08:15:00,
2013-04-25 04:20:00,44.1,36.0,29.97,NNE,32,1.0,7.0,73,0.00,,BKN100,0.00,VWS V14.01,2013-04-25 08:20:00,
2013-04-25 04:25:00,43.9,35.8,29.98,ENE,76,7.0,11.0,73,0.00,,BKN100,0.00,VWS V14.01,2013-04-25 08:25:00,
2013-04-25 04:30:00,43.7,35.3,29.98,NW,315,6.0,11.0,72,0.00,,BKN100,0.00,VWS V14.01,2013-04-25 08:30:00,
2013-04-25 04:35:00,43.6,35.5,29.99,NNW,342,3.0,9.0,73,0.00,,BKN100,0.00,VWS V14.01,2013-04-25 08:35:00,
2013-04-25 04:40:00,43.3,35.2,29.99,NNE,32,3.0,9.0,73,0.00,,BKN100,0.00,VWS V14.01,2013-04-25 08:40:00,
2013-04-25 04:45:00,43.0,34.6,29.99,North,8,6.0,9.0,72,0.00,,BKN100,0.00,VWS V14.01,2013-04-25 08:45:00,
2013-04-25 04:50:00,42.7,33.6,30.00,West,276,2.0,14.0,70,0.00,,BKN100,0.00,VWS V14.01,2013-04-25 08:50:00,
2013-04-25 04:55:00,42.5,33.4,30.00,NNE,14,1.0,14.0,70,0.00,,BKN100,0.00,VWS V14.01,2013-04-25 08:55:00,
2013-04-25 05:00:00,42.3,33.6,30.00,NNE,21,3.0,14.0,71,0.00,,SCT110,0.00,VWS V14.01,2013-04-25 09:00:00,
2013-04-25 05:05:00,42.2,33.1,30.02,NW,317,3.0,12.0,70,0.00,,SCT110,0.00,VWS V14.01,2013-04-25 09:05:00,
2013-04-25 05:10:00,42.0,32.9,30.01,ENE,73,7.0,12.0,70,0.00,,SCT110,0.00,VWS V14.01,2013-04-25 09:10:00,
2013-04-25 05:15:00,41.8,32.4,30.02,ENE,60,1.0,12.0,69,0.00,,SCT110,0.00,VWS V14.01,2013-04-25 09:15:00,
2013-04-25 05:20:00,41.5,32.1,30.02,NW,317,3.0,13.0,69,0.00,,SCT110,0.00,VWS V14.01,2013-04-25 09:20:00,
2013-04-25 05:25:00,41.1,32.1,30.03,WSW,252,1.0,20.0,70,0.00,,SCT110,0.00,VWS V14.01,2013-04-25 09:25:00,
2013-04-25 05:30:00,40.9,31.9,30.04,ESE,117,7.0,20.0,70,0.00,,SCT110,0.00,VWS V14.01,2013-04-25 09:30:00,
2013-04-25 05:35:00,40.7,32.0,30.05,East,84,2.0,10.0,71,0.00,,SCT110,0.00,VWS V14.01,2013-04-25 09:35:00,
2013-04-25 05:40:00,40.4,31.8,30.04,NW,304,2.0,10.0,71,0.00,,SCT110,0.00,VWS V14.01,2013-04-25 09:40:00,
2013-04-25 05:45:00,40.3,31.7,30.05,NW,309,2.0,10.0,71,0.00,,SCT110,0.00,VWS V14.01,2013-04-25 09:45:00,
2013-04-25 05:50:00,40.1,31.8,30.05,WSW,256,2.0,7.0,72,0.00,,SCT110,0.00,VWS V14.01,2013-04-25 09:50:00,
2013-04-25 05:55:00,40.0,31.4,30.05,NNE,32,5.0,9.0,71,0.00,,SCT110,0.00,VWS V14.01,2013-04-25 09:55:00,
2013-04-25 06:00:00,39.8,31.5,30.06,NNE,29,1.0,9.0,72,0.00,,CLR,0.00,VWS V14.01,2013-04-25 10:00:00,
2013-04-25 06:05:00,39.7,31.4,30.07,WNW,294,8.0,12.0,72,0.00,,CLR,0.00,VWS V14.01,2013-04-25 10:05:00,
2013-04-25 06:10:00,39.6,31.3,30.07,North,354,2.0,12.0,72,0.00,,CLR,0.00,VWS V14.01,2013-04-25 10:10:00,
2013-04-25 06:15:00,39.4,31.1,30.07,North,350,3.0,12.0,72,0.00,,CLR,0.00,VWS V14.01,2013-04-25 10:15:00,
2013-04-25 06:20:00,39.3,31.0,30.07,NW,316,4.0,9.0,72,0.00,,CLR,0.00,VWS V14.01,2013-04-25 10:20:00,
2013-04-25 06:25:00,39.2,31.3,30.07,WNW,294,0.0,9.0,73,0.00,,CLR,0.00,VWS V14.01,2013-04-25 10:25:00,
2013-04-25 06:30:00,39.1,31.2,30.08,North,11,6.0,12.0,73,0.00,,CLR,0.00,VWS V14.01,2013-04-25 10:30:00,
2013-04-25 06:35:00,39.2,31.0,30.08,NNW,340,5.0,10.0,72,0.00,,CLR,0.00,VWS V14.01,2013-04-25 10:35:00,
2013-04-25 06:40:00,39.2,30.6,30.08,North,357,5.0,14.0,71,0.00,,CLR,0.00,VWS V14.01,2013-04-25 10:40:00,
2013-04-25 06:45:00,39.3,30.4,30.08,North,349,4.0,14.0,70,0.00,,CLR,0.00,VWS V14.01,2013-04-25 10:45:00,
2013-04-25 06:50:00,39.4,30.4,30.09,NW,318,6.0,9.0,70,0.00,,CLR,0.00,VWS V14.01,2013-04-25 10:50:00,
2013-04-25 06:55:00,39.5,30.2,30.09,NNE,13,4.0,18.0,69,0.00,,CLR,0.00,VWS V14.01,2013-04-25 10:55:00,
2013-04-25 07:00:00,39.6,29.9,30.09,North,350,2.0,18.0,68,0.00,,CLR,0.00,VWS V14.01,2013-04-25 11:00:00,
2013-04-25 07:05:00,39.7,30.0,30.10,North,359,4.0,11.0,68,0.00,,CLR,0.00,VWS V14.01,2013-04-25 11:05:00,
2013-04-25 07:10:00,39.8,30.1,30.11,ENE,67,2.0,11.0,68,0.00,,CLR,0.00,VWS V14.01,2013-04-25 11:10:00,
2013-04-25 07:15:00,40.0,29.9,30.11,NNE,14,4.0,11.0,67,0.00,,CLR,0.00,VWS V14.01,2013-04-25 11:15:00,
2013-04-25 07:20:00,40.4,30.3,30.11,West,259,2.0,8.0,67,0.00,,CLR,0.00,VWS V14.01,2013-04-25 11:20:00,
2013-04-25 07:25:00,40.7,30.6,30.11,NNE,23,5.0,9.0,67,0.00,,CLR,0.00,VWS V14.01,2013-04-25 11:25:00,
2013-04-25 07:30:00,41.0,30.1,30.11,NW,315,1.0,13.0,65,0.00,,CLR,0.00,VWS V14.01,2013-04-25 11:30:00,
2013-04-25 07:35:00,41.2,30.0,30.11,NNW,342,2.0,14.0,64,0.00,,CLR,0.00,VWS V14.01,2013-04-25 11:35:00,
2013-04-25 07:40:00,41.5,30.2,30.11,NNE,26,5.0,14.0,64,0.00,,CLR,0.00,VWS V14.01,2013-04-25 11:40:00,
2013-04-25 07:45:00,41.8,30.1,30.11,NNW,344,3.0,14.0,63,0.00,,CLR,0.00,VWS V14.01,2013-04-25 11:45:00,
2013-04-25 07:50:00,42.1,29.6,30.12,NNE,32,3.0,7.0,61,0.00,,CLR,0.00,VWS V14.01,2013-04-25 11:50:00,
2013-04-25 07:55:00,42.3,29.8,30.12,NNW,337,5.0,9.0,61,0.00,,CLR,0.00,VWS V14.01,2013-04-25 11:55:00,
2013-04-25 08:00:00,42.7,29.8,30.12,NE,56,5.0,9.0,60,0.00,,CLR,0.00,VWS V14.01,2013-04-25 12:00:00,
2013-04-25 08:05:00,43.1,29.8,30.12,NNE,29,2.0,9.0,59,0.00,,CLR,0.00,VWS V14.01,2013-04-25 12:05:00,
2013-04-25 08:10:00,43.1,29.3,30.12,NE,49,1.0,12.0,58,0.00,,CLR,0.00,VWS V14.01,2013-04-25 12:10:00,
2013-04-25 08:15:00,43.2,29.0,30.12,North,9,5.0,12.0,57,0.00,,CLR,0.00,VWS V14.01,2013-04-25 12:15:00,
2013-04-25 08:20:00,43.1,28.5,30.12,NNE,16,3.0,14.0,56,0.00,,CLR,0.00,VWS V14.01,2013-04-25 12:20:00,
2013-04-25 08:25:00,43.3,29.1,30.12,NNW,347,7.0,14.0,57,0.00,,CLR,0.00,VWS V14.01,2013-04-25 12:25:00,
2013-04-25 08:30:00,43.9,29.2,30.12,NNE,18,7.0,14.0,56,0.00,,CLR,0.00,VWS V14.01,2013-04-25 12:30:00,
2013-04-25 08:35:00,43.9,28.8,30.12,ENE,69,2.0,14.0,55,0.00,,CLR,0.00,VWS V14.01,2013-04-25 12:35:00,
2013-04-25 08:40:00,44.2,29.5,30.13,NNW,330,3.0,14.0,56,0.00,,CLR,0.00,VWS V14.01,2013-04-25 12:40:00,
2013-04-25 08:45:00,44.7,29.5,30.13,NNE,30,4.0,14.0,55,0.00,,CLR,0.00,VWS V14.01,2013-04-25 12:45:00,
2013-04-25 08:50:00,45.2,30.0,30.13,ESE,102,1.0,7.0,55,0.00,,CLR,0.00,VWS V14.01,2013-04-25 12:50:00,
2013-04-25 08:55:00,45.6,29.0,30.13,ENE,76,1.0,11.0,52,0.00,,CLR,0.00,VWS V14.01,2013-04-25 12:55:00,
2013-04-25 09:00:00,45.6,28.5,30.13,WNW,293,11.0,11.0,51,0.00,,CLR,0.00,VWS V14.01,2013-04-25 13:00:00,
2013-04-25 09:05:00,45.8,28.7,30.13,NNW,330,4.0,17.0,51,0.00,,CLR,0.00,VWS V14.01,2013-04-25 13:05:00,
2013-04-25 09:10:00,46.2,28.1,30.13,North,360,2.0,17.0,49,0.00,,CLR,0.00,VWS V14.01,2013-04-25 13:10:00,
2013-04-25 09:15:00,46.6,28.0,30.14,NNE,18,4.0,17.0,48,0.00,,CLR,0.00,VWS V14.01,2013-04-25 13:15:00,
2013-04-25 09:20:00,46.6,28.5,30.13,WNW,301,2.0,8.0,49,0.00,,CLR,0.00,VWS V14.01,2013-04-25 13:20:00,
2013-04-25 09:25:00,47.2,28.5,30.13,SSW,213,2.0,8.0,48,0.00,,CLR,0.00,VWS V14.01,2013-04-25 13:25:00,
2013-04-25 09:30:00,47.5,28.8,30.14,East,84,2.0,9.0,48,0.00,,CLR,0.00,VWS V14.01,2013-04-25 13:30:00,
2013-04-25 09:35:00,47.3,28.1,30.14,NNE,23,2.0,7.0,47,0.00,,CLR,0.00,VWS V14.01,2013-04-25 13:35:00,
2013-04-25 09:40:00,47.3,28.6,30.14,North,11,4.0,7.0,48,0.00,,CLR,0.00,VWS V14.01,2013-04-25 13:40:00,
2013-04-25 09:45:00,46.9,28.8,30.14,SE,134,0.0,7.0,49,0.00,,CLR,0.00,VWS V14.01,2013-04-25 13:45:00,
2013-04-25 09:50:00,47.0,28.3,30.14,SSW,212,1.0,6.0,48,0.00,,CLR,0.00,VWS V14.01,2013-04-25 13:50:00,
2013-04-25 09:55:00,47.3,28.6,30.14,NNE,32,4.0,8.0,48,0.00,,CLR,0.00,VWS V14.01,2013-04-25 13:55:00,
2013-04-25 10:00:00,46.9,28.2,30.14,North,8,4.0,9.0,48,0.00,,CLR,0.00,VWS V14.01,2013-04-25 14:00:00,
2013-04-25 10:05:00,46.5,27.9,30.14,ENE,62,1.0,8.0,48,0.00,,CLR,0.00,VWS V14.01,2013-04-25 14:05:00,
2013-04-25 10:10:00,46.4,28.3,30.14,NW,316,2.0,8.0,49,0.00,,CLR,0.00,VWS V14.01,2013-04-25 14:10:00,
2013-04-25 10:15:00,46.4,28.3,30.14,NNE,20,3.0,8.0,49,0.00,,CLR,0.00,VWS V14.01,2013-04-25 14:15:00,
2013-04-25 10:20:00,46.7,28.6,30.14,East,84,0.0,5.0,49,0.00,,CLR,0.00,VWS V14.01,2013-04-25 14:20:00,
2013-04-25 10:25:00,47.9,30.2,30.14,WNW,302,0.0,5.0,50,0.00,,CLR,0.00,VWS V14.01,2013-04-25 14:25:00,
2013-04-25 10:30:00,48.7,29.9,30.14,NNE,29,2.0,9.0,48,0.00,,CLR,0.00,VWS V14.01,2013-04-25 14:30:00,
2013-04-25 10:35:00,49.4,30.5,30.14,East,79,2.0,5.0,48,0.00,,CLR,0.00,VWS V14.01,2013-04-25 14:35:00,
2013-04-25 10:40:00,50.2,29.7,30.14,East,90,1.0,5.0,45,0.00,,CLR,0.00,VWS V14.01,2013-04-25 14:40:00,
2013-04-25 10:45:00,51.1,31.1,30.14,WSW,239,2.0,6.0,46,0.00,,CLR,0.00,VWS V14.01,2013-04-25 14:45:00,
2013-04-25 10:50:00,51.8,29.5,30.14,WNW,300,5.0,5.0,42,0.00,,CLR,0.00,VWS V14.01,2013-04-25 14:50:00,
2013-04-25 10:55:00,51.8,28.3,30.15,East,79,3.0,8.0,40,0.00,,CLR,0.00,VWS V14.01,2013-04-25 14:55:00,
2013-04-25 11:00:00,51.4,27.3,30.14,NNW,338,4.0,8.0,39,0.00,,CLR,0.00,VWS V14.01,2013-04-25 15:00:00,
2013-04-25 11:05:00,51.6,28.7,30.15,WSW,239,2.0,7.0,41,0.00,,CLR,0.00,VWS V14.01,2013-04-25 15:05:00,
2013-04-25 11:10:00,52.1,29.1,30.15,NNW,342,4.0,8.0,41,0.00,,CLR,0.00,VWS V14.01,2013-04-25 15:10:00,
2013-04-25 11:15:00,52.6,29.6,30.15,WNW,295,6.0,8.0,41,0.00,,CLR,0.00,VWS V14.01,2013-04-25 15:15:00,
2013-04-25 11:20:00,52.9,30.5,30.15,NNE,27,2.0,8.0,42,0.00,,CLR,0.00,VWS V14.01,2013-04-25 15:20:00,
2013-04-25 11:25:00,53.6,29.9,30.15,NNE,17,2.0,8.0,40,0.00,,CLR,0.00,VWS V14.01,2013-04-25 15:25:00,
2013-04-25 11:30:00,53.6,29.3,30.15,NW,304,4.0,9.0,39,0.00,,CLR,0.00,VWS V14.01,2013-04-25 15:30:00,
2013-04-25 11:35:00,53.7,31.2,30.15,East,89,1.0,6.0,42,0.00,,CLR,0.00,VWS V14.01,2013-04-25 15:35:00,
2013-04-25 11:40:00,55.1,30.0,30.15,WSW,249,1.0,6.0,38,0.00,,CLR,0.00,VWS V14.01,2013-04-25 15:40:00,
2013-04-25 11:45:00,54.9,29.1,30.15,NNE,23,3.0,10.0,37,0.00,,CLR,0.00,VWS V14.01,2013-04-25 15:45:00,
2013-04-25 11:50:00,55.6,31.1,30.15,NE,53,2.0,5.0,39,0.00,,CLR,0.00,VWS V14.01,2013-04-25 15:50:00,
2013-04-25 11:55:00,56.2,30.3,30.15,East,96,0.0,6.0,37,0.00,,CLR,0.00,VWS V14.01,2013-04-25 15:55:00,
2013-04-25 12:00:00,56.1,29.5,30.15,West,261,2.0,8.0,36,0.00,,CLR,0.00,VWS V14.01,2013-04-25 16:00:00,
2013-04-25 12:05:00,56.0,30.1,30.15,East,80,4.0,4.0,37,0.00,,CLR,0.00,VWS V14.01,2013-04-25 16:05:00,
2013-04-25 12:10:00,56.8,30.1,30.15,NNW,340,3.0,6.0,36,0.00,,CLR,0.00,VWS V14.01,2013-04-25 16:10:00,
2013-04-25 12:15:00,56.8,29.5,30.15,SE,127,3.0,7.0,35,0.00,,CLR,0.00,VWS V14.01,2013-04-25 16:15:00,
2013-04-25 12:20:00,56.8,28.8,30.15,NNW,330,2.0,8.0,34,0.00,,CLR,0.00,VWS V14.01,2013-04-25 16:20:00,
2013-04-25 12:25:00,57.1,29.0,30.14,WNW,294,0.0,8.0,34,0.00,,CLR,0.00,VWS V14.01,2013-04-25 16:25:00,
2013-04-25 12:30:00,57.4,29.3,30.14,NNE,29,2.0,11.0,34,0.00,,CLR,0.00,VWS V14.01,2013-04-25 16:30:00,
2013-04-25 12:35:00,57.6,30.2,30.14,NNE,22,3.0,7.0,35,0.00,,CLR,0.00,VWS V14.01,2013-04-25 16:35:00,
2013-04-25 12:40:00,57.8,28.9,30.14,WNW,283,5.0,8.0,33,0.00,,CLR,0.00,VWS V14.01,2013-04-25 16:40:00,
2013-04-25 12:45:00,57.9,29.7,30.14,NE,41,1.0,8.0,34,0.00,,CLR,0.00,VWS V14.01,2013-04-25 16:45:00,
2013-04-25 12:50:00,58.8,29.8,30.14,NNW,340,1.0,2.0,33,0.00,,CLR,0.00,VWS V14.01,2013-04-25 16:50:00,
2013-04-25 12:55:00,59.0,27.6,30.14,North,1,3.0,8.0,30,0.00,,CLR,0.00,VWS V14.01,2013-04-25 16:55:00,
2013-04-25 13:00:00,58.2,26.9,30.14,WNW,293,3.0,8.0,30,0.00,,CLR,0.00,VWS V14.01,2013-04-25 17:00:00,
2013-04-25 13:05:00,57.6,28.0,30.14,WNW,302,6.0,10.0,32,0.00,,CLR,0.00,VWS V14.01,2013-04-25 17:05:00,
2013-04-25 13:10:00,57.2,26.9,30.14,NE,49,4.0,10.0,31,0.00,,CLR,0.00,VWS V14.01,2013-04-25 17:10:00,
2013-04-25 13:15:00,57.2,26.1,30.13,West,264,1.0,11.0,30,0.00,,CLR,0.00,VWS V14.01,2013-04-25 17:15:00,
2013-04-25 13:20:00,57.8,27.4,30.13,ENE,61,0.0,7.0,31,0.00,,CLR,0.00,VWS V14.01,2013-04-25 17:20:00,
2013-04-25 13:25:00,58.8,28.3,30.13,NW,307,0.0,7.0,31,0.00,,CLR,0.00,VWS V14.01,2013-04-25 17:25:00,
2013-04-25 13:30:00,58.9,25.9,30.14,ESE,121,3.0,10.0,28,0.00,,CLR,0.00,VWS V14.01,2013-04-25 17:30:00,
2013-04-25 13:35:00,59.0,26.8,30.13,NW,318,0.0,7.0,29,0.00,,CLR,0.00,VWS V14.01,2013-04-25 17:35:00,
2013-04-25 13:40:00,59.3,27.1,30.13,SW,226,0.0,7.0,29,0.00,,CLR,0.00,VWS V14.01,2013-04-25 17:40:00,
2013-04-25 13:45:00,59.7,26.6,30.13,North,360,2.0,7.0,28,0.00,,CLR,0.00,VWS V14.01,2013-04-25 17:45:00,
2013-04-25 13:50:00,59.7,29.0,30.13,NNW,340,2.0,5.0,31,0.00,,CLR,0.00,VWS V14.01,2013-04-25 17:50:00,
2013-04-25 13:55:00,61.0,28.5,30.13,WSW,242,1.0,5.0,29,0.00,,CLR,0.00,VWS V14.01,2013-04-25 17:55:00,
2013-04-25 14:00:00,60.4,26.3,30.13,West,266,2.0,8.0,27,0.00,,CLR,0.00,VWS V14.01,2013-04-25 18:00:00,
2013-04-25 14:05:00,59.8,26.6,30.13,SW,227,2.0,10.0,28,0.00,,CLR,0.00,VWS V14.01,2013-04-25 18:05:00,
2013-04-25 14:10:00,59.8,28.3,30.13,ESE,111,0.0,10.0,30,0.00,,CLR,0.00,VWS V14.01,2013-04-25 18:10:00,
2013-04-25 14:15:00,60.5,28.1,30.12,WNW,298,5.0,10.0,29,0.00,,CLR,0.00,VWS V14.01,2013-04-25 18:15:00,
2013-04-25 14:20:00,60.5,27.3,30.12,SE,130,1.0,7.0,28,0.00,,CLR,0.00,VWS V14.01,2013-04-25 18:20:00,
2013-04-25 14:25:00,61.3,27.1,30.12,ENE,78,2.0,7.0,27,0.00,,CLR,0.00,VWS V14.01,2013-04-25 18:25:00,
2013-04-25 14:30:00,61.4,26.2,30.13,WNW,288,1.0,7.0,26,0.00,,CLR,0.00,VWS V14.01,2013-04-25 18:30:00,
2013-04-25 14:35:00,61.0,25.0,30.12,NW,323,2.0,9.0,25,0.00,,CLR,0.00,VWS V14.01,2013-04-25 18:35:00,
2013-04-25 14:40:00,60.3,24.4,30.12,NE,43,2.0,9.0,25,0.00,,CLR,0.00,VWS V14.01,2013-04-25 18:40:00,
2013-04-25 14:45:00,60.4,25.4,30.13,NNW,327,4.0,9.0,26,0.00,,CLR,0.00,VWS V14.01,2013-04-25 18:45:00,
2013-04-25 14:50:00,61.4,25.3,30.13,East,91,1.0,3.0,25,0.00,,CLR,0.00,VWS V14.01,2013-04-25 18:50:00,
2013-04-25 14:55:00,61.3,26.1,30.13,NW,315,1.0,4.0,26,0.00,,CLR,0.00,VWS V14.01,2013-04-25 18:55:00,
2013-04-25 15:00:00,61.2,25.1,30.13,WNW,288,3.0,4.0,25,0.00,,CLR,0.00,VWS V14.01,2013-04-25 19:00:00,
2013-04-25 15:05:00,61.8,25.6,30.12,NE,38,3.0,7.0,25,0.00,,CLR,0.00,VWS V14.01,2013-04-25 19:05:00,
2013-04-25 15:10:00,61.4,26.2,30.12,ENE,75,0.0,7.0,26,0.00,,CLR,0.00,VWS V14.01,2013-04-25 19:10:00,
2013-04-25 15:15:00,62.5,24.2,30.12,West,278,3.0,7.0,23,0.00,,CLR,0.00,VWS V14.01,2013-04-25 19:15:00,
2013-04-25 15:20:00,62.0,24.8,30.12,North,354,1.0,5.0,24,0.00,,CLR,0.00,VWS V14.01,2013-04-25 19:20:00,
2013-04-25 15:25:00,62.4,25.2,30.12,East,84,3.0,5.0,24,0.00,,CLR,0.00,VWS V14.01,2013-04-25 19:25:00,
2013-04-25 15:30:00,63.1,25.8,30.12,WNW,298,2.0,5.0,24,0.00,,CLR,0.00,VWS V14.01,2013-04-25 19:30:00,
2013-04-25 15:35:00,63.2,24.8,30.12,SW,214,3.0,8.0,23,0.00,,CLR,0.00,VWS V14.01,2013-04-25 19:35:00,
2013-04-25 15:40:00,62.4,24.1,30.11,SW,224,5.0,8.0,23,0.00,,CLR,0.00,VWS V14.01,2013-04-25 19:40:00,
2013-04-25 15:45:00,62.4,23.1,30.12,NNE,30,2.0,8.0,22,0.00,,CLR,0.00,VWS V14.01,2013-04-25 19:45:00,
2013-04-25 15:50:00,62.4,23.1,30.12,WNW,283,1.0,4.0,22,0.00,,CLR,0.00,VWS V14.01,2013-04-25 19:50:00,
2013-04-25 15:55:00,61.7,23.5,30.12,NE,34,3.0,9.0,23,0.00,,CLR,0.00,VWS V14.01,2013-04-25 19:55:00,
2013-04-25 16:00:00,61.6,21.3,30.12,NNE,15,2.0,9.0,21,0.00,,CLR,0.00,VWS V14.01,2013-04-25 20:00:00,
2013-04-25 16:05:00,61.8,21.5,30.12,NNE,21,2.0,5.0,21,0.00,,CLR,0.00,VWS V14.01,2013-04-25 20:05:00,
2013-04-25 16:10:00,62.1,22.8,30.11,ENE,64,1.0,5.0,22,0.00,,CLR,0.00,VWS V14.01,2013-04-25 20:10:00,
2013-04-25 16:15:00,62.4,23.1,30.11,West,267,2.0,5.0,22,0.00,,CLR,0.00,VWS V14.01,2013-04-25 20:15:00,
2013-04-25 16:20:00,62.8,23.4,30.11,WSW,252,1.0,5.0,22,0.00,,CLR,0.00,VWS V14.01,2013-04-25 20:20:00,
2013-04-25 16:25:00,63.0,23.6,30.11,NE,44,1.0,5.0,22,0.00,,CLR,0.00,VWS V14.01,2013-04-25 20:25:00,
2013-04-25 16:30:00,62.6,22.1,30.11,NNW,347,4.0,6.0,21,0.00,,CLR,0.00,VWS V14.01,2013-04-25 20:30:00,
2013-04-25 16:35:00,62.3,25.1,30.11,WNW,291,2.0,6.0,24,0.00,,CLR,0.00,VWS V14.01,2013-04-25 20:35:00,
2013-04-25 16:40:00,62.4,24.1,30.11,West,277,6.0,6.0,23,0.00,,CLR,0.00,VWS V14.01,2013-04-25 20:40:00,
2013-04-25 16:45:00,62.2,22.9,30.11,NNE,15,2.0,7.0,22,0.00,,CLR,0.00,VWS V14.01,2013-04-25 20:45:00,
2013-04-25 16:50:00,62.0,23.8,30.11,NNE,18,0.0,3.0,23,0.00,,CLR,0.00,VWS V14.01,2013-04-25 20:50:00,
2013-04-25 16:55:00,62.1,22.8,30.11,South,169,1.0,3.0,22,0.00,,CLR,0.00,VWS V14.01,2013-04-25 20:55:00,
2013-04-25 17:00:00,62.4,24.1,30.11,SW,218,2.0,3.0,23,0.00,,CLR,0.00,VWS V14.01,2013-04-25 21:00:00,
2013-04-25 17:05:00,62.1,24.9,30.11,WSW,256,1.0,4.0,24,0.00,,CLR,0.00,VWS V14.01,2013-04-25 21:05:00,
2013-04-25 17:10:00,62.2,22.9,30.11,West,259,2.0,4.0,22,0.00,,CLR,0.00,VWS V14.01,2013-04-25 21:10:00,
2013-04-25 17:15:00,62.0,21.6,30.11,WNW,288,3.0,4.0,21,0.00,,CLR,0.00,VWS V14.01,2013-04-25 21:15:00,
2013-04-25 17:20:00,61.2,21.0,30.11,WSW,256,2.0,7.0,21,0.00,,CLR,0.00,VWS V14.01,2013-04-25 21:20:00,
2013-04-25 17:25:00,61.1,23.0,30.11,SW,218,0.0,7.0,23,0.00,,CLR,0.00,VWS V14.01,2013-04-25 21:25:00,
2013-04-25 17:30:00,61.2,23.1,30.11,SW,229,0.0,7.0,23,0.00,,CLR,0.00,VWS V14.01,2013-04-25 21:30:00,
2013-04-25 17:35:00,61.6,24.5,30.12,SW,229,2.0,4.0,24,0.00,,CLR,0.00,VWS V14.01,2013-04-25 21:35:00,
2013-04-25 17:40:00,61.3,22.2,30.12,North,354,0.0,4.0,22,0.00,,CLR,0.00,VWS V14.01,2013-04-25 21:40:00,
2013-04-25 17:45:00,61.7,22.5,30.12,NE,48,0.0,4.0,22,0.00,,CLR,0.00,VWS V14.01,2013-04-25 21:45:00,
2013-04-25 17:50:00,62.2,22.9,30.12,WSW,243,2.0,3.0,22,0.00,,CLR,0.00,VWS V14.01,2013-04-25 21:50:00,
2013-04-25 17:55:00,61.8,22.6,30.12,West,277,2.0,4.0,22,0.00,,CLR,0.00,VWS V14.01,2013-04-25 21:55:00,
2013-04-25 18:00:00,62.1,21.7,30.12,West,276,0.0,4.0,21,0.00,,CLR,0.00,VWS V14.01,2013-04-25 22:00:00,
2013-04-25 18:05:00,62.0,20.5,30.13,West,259,0.0,5.0,20,0.00,,CLR,0.00,VWS V14.01,2013-04-25 22:05:00,
2013-04-25 18:10:00,62.0,22.8,30.13,NNE,30,2.0,5.0,22,0.00,,CLR,0.00,VWS V14.01,2013-04-25 22:10:00,
2013-04-25 18:15:00,61.9,20.4,30.13,NW,312,0.0,5.0,20,0.00,,CLR,0.00,VWS V14.01,2013-04-25 22:15:00,
2013-04-25 18:20:00,61.6,20.2,30.13,WSW,256,4.0,6.0,20,0.00,,CLR,0.00,VWS V14.01,2013-04-25 22:20:00,
2013-04-25 18:25:00,61.7,23.5,30.13,WSW,256,1.0,6.0,23,0.00,,CLR,0.00,VWS V14.01,2013-04-25 22:25:00,
2013-04-25 18:30:00,61.9,22.7,30.13,NNE,26,2.0,6.0,22,0.00,,CLR,0.00,VWS V14.01,2013-04-25 22:30:00,
2013-04-25 18:35:00,61.6,21.3,30.13,WNW,301,1.0,3.0,21,0.00,,CLR,0.00,VWS V14.01,2013-04-25 22:35:00,
2013-04-25 18:40:00,60.9,21.8,30.13,SW,226,5.0,5.0,22,0.00,,CLR,0.00,VWS V14.01,2013-04-25 22:40:00,
2013-04-25 18:45:00,60.3,24.4,30.13,SW,221,2.0,5.0,25,0.00,,CLR,0.00,VWS V14.01,2013-04-25 22:45:00,
2013-04-25 18:50:00,59.9,23.0,30.13,SE,135,1.0,2.0,24,0.00,,CLR,0.00,VWS V14.01,2013-04-25 22:50:00,
2013-04-25 18:55:00,59.4,24.5,30.13,SSW,200,0.0,2.0,26,0.00,,CLR,0.00,VWS V14.01,2013-04-25 22:55:00,
2013-04-25 19:00:00,59.0,23.2,30.13,WNW,300,1.0,3.0,25,0.00,,CLR,0.00,VWS V14.01,2013-04-25 23:00:00,
2013-04-25 19:05:00,58.6,23.8,30.13,West,269,2.0,2.0,26,0.00,,CLR,0.00,VWS V14.01,2013-04-25 23:05:00,
2013-04-25 19:10:00,58.3,25.4,30.13,WSW,253,0.0,3.0,28,0.00,,CLR,0.00,VWS V14.01,2013-04-25 23:10:00,
2013-04-25 19:15:00,58.0,26.0,30.14,West,277,1.0,4.0,29,0.00,,CLR,0.00,VWS V14.01,2013-04-25 23:15:00,
2013-04-25 19:20:00,57.7,26.5,30.14,WSW,257,3.0,4.0,30,0.00,,CLR,0.00,VWS V14.01,2013-04-25 23:20:00,
2013-04-25 19:25:00,57.3,27.0,30.14,SW,229,1.0,4.0,31,0.00,,CLR,0.00,VWS V14.01,2013-04-25 23:25:00,
2013-04-25 19:30:00,57.0,27.5,30.14,West,278,1.0,7.0,32,0.00,,CLR,0.00,VWS V14.01,2013-04-25 23:30:00,
2013-04-25 19:35:00,56.7,27.2,30.14,WNW,287,1.0,4.0,32,0.00,,CLR,0.00,VWS V14.01,2013-04-25 23:35:00,
2013-04-25 19:40:00,56.4,26.9,30.14,SW,229,2.0,4.0,32,0.00,,CLR,0.00,VWS V14.01,2013-04-25 23:40:00,
2013-04-25 19:44:00,56.2,26.8,30.15,SW,225,1.0,5.0,32,0.00,,CLR,0.00,VWS V14.01,2013-04-25 23:44:00,
2013-04-25 19:49:00,55.9,27.2,30.15,WSW,256,3.0,3.0,33,0.00,,CLR,0.00,VWS V14.01,2013-04-25 23:49:00,
2013-04-25 19:54:00,55.6,27.0,30.15,WSW,253,0.0,3.0,33,0.00,,CLR,0.00,VWS V14.01,2013-04-25 23:54:00,
2013-04-25 19:59:00,55.4,26.8,30.15,West,261,1.0,5.0,33,0.00,,CLR,0.00,VWS V14.01,2013-04-25 23:59:00,
2013-04-25 20:04:00,55.1,27.3,30.15,WSW,246,1.0,3.0,34,0.00,,CLR,0.00,VWS V14.01,2013-04-26 00:04:00,
2013-04-25 20:09:00,54.9,27.1,30.16,SW,235,1.0,4.0,34,0.00,,CLR,0.00,VWS V14.01,2013-04-26 00:09:00,
2013-04-25 20:14:00,54.6,26.8,30.16,West,269,0.0,4.0,34,0.00,,CLR,0.00,VWS V14.01,2013-04-26 00:14:00,
2013-04-25 20:19:00,54.3,26.5,30.16,West,273,1.0,2.0,34,0.00,,CLR,0.00,VWS V14.01,2013-04-26 00:19:00,
2013-04-25 20:24:00,54.2,26.5,30.17,West,259,1.0,4.0,34,0.00,,CLR,0.00,VWS V14.01,2013-04-26 00:24:00,
2013-04-25 20:29:00,54.0,27.0,30.17,WSW,250,1.0,4.0,35,0.00,,CLR,0.00,VWS V14.01,2013-04-26 00:29:00,
2013-04-25 20:34:00,53.8,26.8,30.17,SW,229,0.0,2.0,35,0.00,,CLR,0.00,VWS V14.01,2013-04-26 00:34:00,
2013-04-25 20:39:00,53.5,25.8,30.17,SW,231,0.0,2.0,34,0.00,,CLR,0.00,VWS V14.01,2013-04-26 00:39:00,
2013-04-25 20:44:00,53.4,26.5,30.17,West,264,1.0,3.0,35,0.00,,CLR,0.00,VWS V14.01,2013-04-26 00:44:00,
2013-04-25 20:49:00,53.3,26.4,30.18,West,266,3.0,3.0,35,0.00,,CLR,0.00,VWS V14.01,2013-04-26 00:49:00,
2013-04-25 20:54:00,53.3,26.4,30.18,SW,228,1.0,3.0,35,0.00,,CLR,0.00,VWS V14.01,2013-04-26 00:54:00,
2013-04-25 20:59:00,53.3,26.4,30.18,WSW,256,0.0,3.0,35,0.00,,CLR,0.00,VWS V14.01,2013-04-26 00:59:00,
2013-04-25 21:04:00,53.3,26.4,30.18,West,259,1.0,2.0,35,0.00,,CLR,0.00,VWS V14.01,2013-04-26 01:04:00,
2013-04-25 21:09:00,53.1,26.9,30.19,WSW,256,0.0,2.0,36,0.00,,CLR,0.00,VWS V14.01,2013-04-26 01:09:00,
2013-04-25 21:14:00,52.9,26.7,30.19,WSW,256,0.0,2.0,36,0.00,,CLR,0.00,VWS V14.01,2013-04-26 01:14:00,
2013-04-25 21:19:00,52.7,27.2,30.19,WSW,257,0.0,1.0,37,0.00,,CLR,0.00,VWS V14.01,2013-04-26 01:19:00,
2013-04-25 21:24:00,52.5,27.0,30.20,WNW,285,2.0,4.0,37,0.00,,CLR,0.00,VWS V14.01,2013-04-26 01:24:00,
2013-04-25 21:29:00,52.3,26.8,30.20,SW,222,1.0,4.0,37,0.00,,CLR,0.00,VWS V14.01,2013-04-26 01:29:00,
2013-04-25 21:34:00,52.0,26.5,30.20,SW,222,0.0,1.0,37,0.00,,CLR,0.00,VWS V14.01,2013-04-26 01:34:00,
2013-04-25 21:39:00,51.8,26.4,30.20,SW,222,1.0,1.0,37,0.00,,CLR,0.00,VWS V14.01,2013-04-26 01:39:00,
2013-04-25 21:44:00,51.6,26.8,30.21,SW,222,0.0,1.0,38,0.00,,CLR,0.00,VWS V14.01,2013-04-26 01:44:00,
2013-04-25 21:49:00,51.4,26.7,30.21,SW,222,0.0,1.0,38,0.00,,CLR,0.00,VWS V14.01,2013-04-26 01:49:00,
2013-04-25 21:54:00,51.2,26.5,30.21,SW,222,0.0,1.0,38,0.00,,CLR,0.00,VWS V14.01,2013-04-26 01:54:00,
2013-04-25 21:59:00,50.9,26.8,30.21,SW,222,0.0,1.0,39,0.00,,CLR,0.00,VWS V14.01,2013-04-26 01:59:00,
2013-04-25 22:04:00,50.5,27.1,30.21,SW,222,0.0,0.0,40,0.00,,CLR,0.00,VWS V14.01,2013-04-26 02:04:00,
2013-04-25 22:09:00,50.2,27.4,30.21,SW,223,0.0,1.0,41,0.00,,CLR,0.00,VWS V14.01,2013-04-26 02:09:00,
2013-04-25 22:14:00,50.1,27.3,30.22,SW,223,0.0,1.0,41,0.00,,CLR,0.00,VWS V14.01,2013-04-26 02:14:00,
2013-04-25 22:19:00,50.2,27.4,30.22,SW,222,0.0,0.0,41,0.00,,CLR,0.00,VWS V14.01,2013-04-26 02:19:00,
2013-04-25 22:24:00,49.9,27.7,30.22,WSW,243,0.0,0.0,42,0.00,,CLR,0.00,VWS V14.01,2013-04-26 02:24:00,
2013-04-25 22:29:00,49.7,28.1,30.22,NNW,332,1.0,4.0,43,0.00,,CLR,0.00,VWS V14.01,2013-04-26 02:29:00,
2013-04-25 22:34:00,49.9,28.3,30.22,NW,324,0.0,3.0,43,0.00,,CLR,0.00,VWS V14.01,2013-04-26 02:34:00,
2013-04-25 22:39:00,49.9,28.9,30.22,West,269,0.0,3.0,44,0.00,,CLR,0.00,VWS V14.01,2013-04-26 02:39:00,
2013-04-25 22:44:00,49.9,29.4,30.22,WSW,257,1.0,3.0,45,0.00,,CLR,0.00,VWS V14.01,2013-04-26 02:44:00,
2013-04-25 22:49:00,49.9,29.4,30.22,WSW,248,0.0,3.0,45,0.00,,CLR,0.00,VWS V14.01,2013-04-26 02:49:00,
2013-04-25 22:54:00,50.0,30.0,30.22,West,266,0.0,3.0,46,0.00,,CLR,0.00,VWS V14.01,2013-04-26 02:54:00,
2013-04-25 22:59:00,50.0,30.0,30.23,West,266,0.0,3.0,46,0.00,,CLR,0.00,VWS V14.01,2013-04-26 02:59:00,
2013-04-25 23:04:00,49.8,29.9,30.22,West,269,0.0,2.0,46,0.00,,CLR,0.00,VWS V14.01,2013-04-26 03:04:00,
2013-04-25 23:09:00,49.7,30.3,30.22,WNW,287,1.0,2.0,47,0.00,,CLR,0.00,VWS V14.01,2013-04-26 03:09:00,
2013-04-25 23:14:00,49.9,30.5,30.22,WSW,246,0.0,6.0,47,0.00,,CLR,0.00,VWS V14.01,2013-04-26 03:14:00,
2013-04-25 23:19:00,49.9,30.5,30.22,WNW,294,1.0,2.0,47,0.00,,CLR,0.00,VWS V14.01,2013-04-26 03:19:00,
2013-04-25 23:24:00,49.8,30.4,30.22,West,266,1.0,3.0,47,0.00,,CLR,0.00,VWS V14.01,2013-04-26 03:24:00,
2013-04-25 23:29:00,49.7,30.3,30.22,West,270,1.0,3.0,47,0.00,,CLR,0.00,VWS V14.01,2013-04-26 03:29:00,
2013-04-25 23:34:00,49.6,30.2,30.22,NW,304,0.0,1.0,47,0.00,,CLR,0.00,VWS V14.01,2013-04-26 03:34:00,
2013-04-25 23:39:00,49.5,30.1,30.22,NW,309,0.0,2.0,47,0.00,,CLR,0.00,VWS V14.01,2013-04-26 03:39:00,
2013-04-25 23:44:00,49.2,30.4,30.22,NW,312,0.0,2.0,48,0.00,,CLR,0.00,VWS V14.01,2013-04-26 03:44:00,
2013-04-25 23:49:00,49.3,30.5,30.22,WNW,284,1.0,3.0,48,0.00,,CLR,0.00,VWS V14.01,2013-04-26 03:49:00,
2013-04-25 23:54:00,49.1,30.3,30.22,NW,312,2.0,3.0,48,0.00,,CLR,0.00,VWS V14.01,2013-04-26 03:54:00,
2013-04-25 23:59:00,48.9,30.6,30.22,NW,312,0.0,3.0,49,0.00,,CLR,0.00,VWS V14.01,2013-04-26 03:59:00,